Location: Houston
(29.7630°N, 95.3630°W)
Time: 10:31:37
(UTC-05:00)

ISS - All Passes

Search period start: 31 March 2015 00:00
Search period end: 10 April 2015 00:00
Orbit: 396 x 405 km, 51.6° (Epoch: 31 March)

Date Brightness Start Highest point End Pass type
(mag) Time Alt. Az. Time Alt. Az. Time Alt. Az.
31 Mar - 05:17:06 10° N 05:18:55 14° NE 05:20:50 10° ENE visible
31 Mar - 06:52:26 10° WNW 06:55:28 38° SW 06:58:29 10° SSE daylight
31 Mar - 21:50:29 10° SW 21:53:44 75° NW 21:56:59 10° NE visible
01 Apr - 05:58:51 10° NW 06:02:04 80° NE 06:05:17 10° SE visible
01 Apr - 20:57:14 10° SSW 21:00:18 41° SE 21:03:23 10° ENE visible
01 Apr - 22:35:01 10° WNW 22:36:52 14° NW 22:38:39 10° N night (unlit)
02 Apr - 05:05:36 10° NNW 05:08:32 32° NE 05:11:29 10° ESE visible
02 Apr - 06:43:00 10° W 06:44:44 13° SW 06:46:20 10° SSW visible
02 Apr - 20:04:42 10° S 20:06:54 17° SE 20:09:11 10° E visible
02 Apr - 21:40:20 10° W 21:43:10 26° NW 21:45:58 10° NNE visible
03 Apr - 04:12:44 10° N 04:14:51 16° NE 04:17:02 10° E night (unlit)
03 Apr - 05:48:25 10° WNW 05:51:19 31° SW 05:54:12 10° SSE visible
03 Apr - 20:46:19 10° SW 20:49:32 61° NW 20:52:46 10° NE visible
04 Apr - 04:54:37 10° NW 04:57:51 83° SW 05:01:03 10° SE night (unlit)
04 Apr - 19:52:51 10° SSW 19:56:00 50° SE 19:59:10 10° NE daylight
04 Apr - 21:31:08 10° WNW 21:32:38 12° NW 21:34:03 10° N visible
05 Apr - 04:01:12 10° NNW 04:04:14 38° NE 04:07:16 10° ESE night (unlit)
05 Apr - 05:39:15 10° WSW 05:40:23 11° SW 05:41:22 10° SW night (unlit)
05 Apr - 19:00:01 10° S 19:02:29 20° SE 19:05:01 10° ENE daylight
05 Apr - 20:36:07 10° W 20:38:48 23° NW 20:41:28 10° NNE visible
06 Apr - 03:08:08 10° N 03:10:29 19° NE 03:12:53 10° E night (unlit)
06 Apr - 04:44:07 10° WNW 04:46:53 26° SW 04:49:36 10° S night (unlit)
06 Apr - 19:41:53 10° WSW 19:45:04 50° NW 19:48:15 10° NNE daylight
07 Apr - 02:16:16 10° NNE 02:16:35 10° NNE 02:17:01 10° NE night (unlit)
07 Apr - 03:50:07 10° NW 03:53:19 68° SW 03:56:30 10° SE night (unlit)
07 Apr - 18:48:11 10° SSW 18:51:24 61° SE 18:54:38 10° NE daylight
07 Apr - 20:27:06 10° NW 20:28:06 11° NNW 20:29:01 10° NNW visible
08 Apr - 02:56:31 10° NNW 02:59:38 46° NE 03:02:45 10° ESE night (unlit)
08 Apr - 17:55:07 10° S 17:57:48 24° SE 18:00:31 10° ENE daylight
08 Apr - 19:31:37 10° W 19:34:09 20° NW 19:36:38 10° NNE daylight
09 Apr - 02:03:16 10° NNW 02:05:49 21° NE 02:08:24 10° E night (unlit)
09 Apr - 03:39:33 10° WNW 03:42:09 22° SW 03:44:42 10° S night (unlit)
09 Apr - 17:03:37 10° SE 17:04:11 10° SE 17:04:54 10° ESE daylight
09 Apr - 18:37:11 10° WSW 18:40:18 42° NW 18:43:25 10° NNE daylight
